Cloud_Cover
74 73 96 24 98 58 48 62 91 91 8 59 94 48 91 100 100 100 55 100 100 100 100 100 100 100 100 93 5 8 82 0 4 4 2 0 0 0 0 0 0 0 0 0 0
5 94 83 46 54 80 100 87 100 93 80 86 70 98 91 100 100 100 100 100 100 100 100 100 100 100 100 21 36 41 100 98 5 3 8 0 0 0 0 0 0 0 0 0 0
100 8 79 100 88 100 85 100 34 63 7 79 100 41 71 100 100 100 100 100 100 100 100 100 100 100 100 83 94 6 100 100 2 5 25 0 0 0 0 0 0 0 0 0 0
100 86 96 98 59 56 57 79 90 52 48 42 100 43 100 100 100 100 100 100 100 100 100 100 100 100 100 34 100 100 100 81 6 5 5 2 1 0 0 0 0 0 0 0 0
100 100 100 96 88 67 32 21 13 97 8 54 92 88 100 90 96 100 100 100 100 100 100 100 100 100 100 99 96 100 100 100 98 34 23 9 4 0 0 0 0 0 0 0 0
100 94 99 86 36 90 100 94 78 70 7 5 91 98 100 98 100 97 100 100 100 100 100 100 100 100 100 94 100 100 100 100 94 72 50 88 1 0 0 0 0 0 0 0 0
100 100 100 68 98 56 33 78 15 57 5 5 78 95 100 100 79 40 100 100 100 100 100 100 98 100 100 68 94 100 100 9 61 100 70 89 3 0 0 0 0 0 0 0 0
100 100 100 41 76 45 9 36 25 54 13 5 24 93 100 77 84 57 94 100 100 100 100 97 90 100 100 93 100 100 85 5 99 100 93 100 14 0 0 0 0 0 0 0 0
100 87 33 49 31 10 12 45 5 26 82 5 9 89 96 100 48 38 63 84 100 100 100 100 100 100 89 26 100 100 84 100 88 27 52 78 20 0 0 0 0 0 0 0 0
93 80 87 51 21 11 5 52 42 5 5 41 20 92 98 100 100 14 24 99 70 100 88 93 91 59 90 52 100 100 55 100 60 36 98 98 11 0 4 5 0 0 0 0 0
100 100 100 100 100 21 8 13 25 34 12 17 50 100 100 98 100 28 100 100 98 60 100 100 99 37 52 24 97 100 33 100 5 53 51 100 27 0 5 2 0 0 0 0 0
100 100 100 100 100 100 88 100 100 100 100 97 100 100 100 100 100 100 21 11 31 38 100 100 100 52 9 15 68 100 95 97 6 66 78 100 14 5 48 0 0 0 0 0 0
100 100 100 100 100 100 100 100 100 100 100 100 100 100 100 100 99 100 72 13 32 95 97 100 34 5 10 43 41 77 100 90 51 17 64 96 10 5 97 2 0 0 0 0 0
100 100 100 100 100 100 100 100 100 100 100 100 100 92 100 100 71 100 96 33 50 100 100 92 82 95 5 5 11 26 74 50 74 40 76 75 6 5 97 9 0 0 0 0 0
100 100 100 100 100 100 100 100 100 100 100 100 100 11 5 41 22 82 100 94 74 100 100 74 44 8 9 5 6 29 62 14 84 100 22 54 5 0 11 5 0 0 0 0 0
100 100 100 100 100 100 100 100 100 100 100 100 96 66 51 5 12 5 43 88 28 79 100 100 97 44 56 6 28 96 87 84 90 100 56 6 5 0 4 5 0 0 0 0 0
100 100 100 100 100 72 98 69 7 100 100 100 100 97 89 5 5 5 5 25 79 67 74 53 70 72 20 5 5 14 73 88 70 100 100 70 5 5 1 5 0 0 0 0 0
100 100 100 100 100 100 99 91 7 98 100 100 100 100 91 41 19 5 5 5 5 7 10 37 33 55 39 6 5 5 71 41 81 100 100 85 5 5 1 5 0 0 0 0 0
100 100 100 100 100 100 100 100 100 100 100 100 100 100 100 100 91 68 5 5 5 8 26 9 5 5 53 58 5 97 28 93 77 100 100 100 15 8 2 5 0 0 0 0 0
100 100 100 100 100 100 98 100 100 100 100 100 100 100 100 100 100 100 100 5 5 5 100 100 57 10 32 95 61 96 84 83 33 98 100 100 68 58 5 5 0 1 0 0 0
100 100 100 100 100 100 100 100 100 100 100 100 100 100 100 100 100 100 97 96 10 78 100 100 100 73 76 100 8 47 87 76 32 85 100 100 100 54 36 5 0 2 0 0 0
100 100 100 100 100 100 100 100 100 100 100 100 100 100 100 100 100 100 100 100 98 5 38 100 100 100 46 77 88 55 87 58 73 59 78 99 88 87 28 5 2 0 0 0 0
100 100 100 100 100 100 100 100 100 100 100 100 100 100 100 100 100 100 100 100 100 100 11 11 88 100 93 32 5 98 70 10 19 72 100 100 27 100 90 7 4 0 7 0 0
100 100 100 100 100 45 79 100 100 100 100 100 100 100 100 100 100 100 100 100 100 100 70 27 99 100 100 99 54 100 100 95 63 42 98 82 94 100 58 48 5 3 1 4 0
100 100 100 100 96 63 100 100 100 100 100 100 100 100 100 100 100 100 100 91 100 100 99 100 52 79 100 100 85 100 100 100 68 98 96 63 100 56 100 85 13 5 5 4 0
100 100 100 100 100 100 100 92 100 100 100 100 100 100 100 100 100 100 100 54 100 100 100 70 100 57 12 100 100 100 100 60 48 88 88 50 91 100 100 50 64 98 10 7 5
100 100 100 100 100 100 6 50 100 100 100 100 100 100 100 100 100 100 100 72 100 100 100 100 100 100 97 23 100 100 100 100 46 12 80 16 52 21 100 100 100 100 57 65 6